DIRECTV 15 (40663 NORAD) Tracking and Keplerian Element Data

This shows tracking and keplerian element data for the satellite.

Feedback or suggestion? Click here.




ElementValue
Catalog40663
NameDIRECTV 15
Epoch Orbit1273
Epoch Day317.1351674
Epoch Year2018
RAAN299.8983
Inclination0.0106
Eccentricity2.53E-05
Argument of Perigee165.0576
Mean Anonmoly255.0744
Mean Motion1.00269926
Decay Rate-1.17E-06
L11 40663U 15026A 18317.13516740 -.00000117 00000-0 00000+0 0 9999
L22 40663 0.0106 299.8983 0000253 165.0576 255.0744 1.00269926 12731

Live tracking and technical data element details for DIRECTV 15 (NORAD 40663). DIRECTV 15 can be tracked NOW for your location showing map with azimuth and elevation plus other details from your city location.

Track the satellite on the map from your city or location and see movement details for azimuth, elevation, latitude, longitude, range, height, and movement on the map or in text.







IsCatalogInMostPopularTable: catalog: 40663, numindb: 142
Update: records affected: 1



GetName: 40663 DIRECTV 15

Hit Count: updated at: Wed, 14 Nov 2018 15:02:30 GMT